Weather History for Springfield, CO

Change the Weather History Date:

Saturday, January 12, 2013

  Actual Average Record
Temperature  
Mean Temperature 17 °F -  
Max Temperature 25 °F 46 °F 66 °F (2014)
Min Temperature 9 °F 18 °F -1 °F (2011)
Degree Days  
Heating Degree Days 48 33  
Month to date heating degree days 442 401  
Since 1 July heating degree days 2376 2559  
Cooling Degree Days 0 0  
Month to date cooling degree days 0 0  
Year to date cooling degree days 0 0  
Moisture  
Dew Point 4 °F    
Average Humidity 67    
Maximum Humidity 91    
Minimum Humidity 42    
Precipitation  
Precipitation 0.00 in 0.01 in 0.11 in (2007)
Month to date precipitation 0.02 0.09  
Year to date precipitation 0.02 0.09  
Sea Level Pressure  
Sea Level Pressure 30.02 in    
Wind  
Wind Speed 7 mph (ENE)    
Max Wind Speed 16 mph    
Max Gust Speed 20 mph    
T = Trace of Precipitation, MM = Missing Value Source: NWS Daily Summary

Daily Weather History Graph

Daily Weather History Graph

Search for Another Location

Airport:

Trip Planner

Search our weather history database for the weather conditions in past years. The results will help you decide how hot, cold, wet, or windy it might be!

Date:

Astronomy

Jan. 12, 2013 Rise Set
Actual Time 7:04 AM MST 4:53 PM MST
Civil Twilight 6:35 AM MST 5:22 PM MST
Nautical Twilight 6:03 AM MST 5:54 PM MST
Astronomical Twilight 5:32 AM MST 6:26 PM MST
Moon 7:26 AM MST (1/12) 6:22 PM MST (1/12)
Length of Visible Light 10h 47m
Length of Day
9h 49m
New Moon, 1% of the Moon is Illuminated
Jan 12
New Moon
Jan 18
First Quarter
Jan 26
Full
Feb 3
Last Quarter
Feb 10
New

Hourly Weather History & Observations

Time (MST) Temp. Windchill Dew Point Humidity Pressure Visibility Wind Dir Wind Speed Gust Speed Precip Events Conditions
12:56 AM 18.0 °F 6.9 °F -0.9 °F 44% 29.83 in - NW 9.2 mph - N/A   Unknown
1:56 AM 15.1 °F 4.2 °F -0.9 °F 49% 29.86 in - NW 8.1 mph - N/A   Unknown
2:56 AM 15.1 °F 5.2 °F -0.0 °F 51% 29.90 in - ENE 6.9 mph - N/A   Unknown
3:56 AM 12.9 °F - 1.0 °F 59% 29.90 in - Calm Calm - N/A   Unknown
4:56 AM 12.0 °F - 3.9 °F 70% 29.95 in - Calm Calm - N/A   Unknown
5:56 AM 9.0 °F - 5.0 °F 84% 29.99 in - Calm Calm - N/A   Unknown
6:56 AM 9.0 °F 2.4 °F 6.1 °F 88% 30.04 in - SSE 3.5 mph - N/A   Unknown
7:56 AM 12.9 °F - 9.0 °F 84% 30.05 in - Calm Calm - N/A   Unknown
8:56 AM 17.1 °F 6.6 °F 6.1 °F 62% 30.06 in - East 8.1 mph - N/A   Unknown
9:56 AM 19.0 °F 8.2 °F 6.1 °F 57% 30.04 in - ENE 9.2 mph - N/A   Unknown
10:56 AM 21.0 °F 13.4 °F 7.0 °F 55% 30.04 in - East 5.8 mph - N/A   Unknown
11:56 AM 21.9 °F 12.5 °F 6.1 °F 51% 30.01 in - ENE 8.1 mph - N/A   Unknown
12:56 PM 23.0 °F 13.9 °F 5.0 °F 46% 30.01 in - NE 8.1 mph - N/A   Unknown
1:56 PM 24.1 °F 15.2 °F 5.0 °F 44% 30.00 in - East 8.1 mph - N/A   Unknown
2:56 PM 24.1 °F 14.4 °F 5.0 °F 44% 30.01 in - NE 9.2 mph - N/A   Unknown
3:56 PM 23.0 °F 13.1 °F 5.0 °F 46% 30.01 in - ENE 9.2 mph - N/A   Unknown
4:56 PM 19.0 °F 9.0 °F 5.0 °F 54% 30.04 in - ENE 8.1 mph - N/A   Unknown
5:56 PM 12.9 °F 1.6 °F 3.9 °F 67% 30.09 in - ENE 8.1 mph - N/A   Unknown
6:56 PM 12.9 °F 5.2 °F 3.9 °F 67% 30.11 in - NE 4.6 mph - N/A   Unknown
7:56 PM 12.9 °F 1.6 °F 5.0 °F 71% 30.12 in - NE 8.1 mph - N/A   Unknown
8:56 PM 15.1 °F 3.3 °F 6.1 °F 68% 30.12 in - NE 9.2 mph - N/A   Unknown
9:56 PM 14.0 °F -0.8 °F 5.0 °F 67% 30.11 in - ENE 13.8 mph - N/A   Unknown
10:56 PM 12.9 °F 1.6 °F 5.0 °F 71% 30.13 in - ENE 8.1 mph - N/A   Unknown
11:56 PM 10.9 °F -1.8 °F 5.0 °F 77% 30.12 in - ENE 9.2 mph - N/A   Unknown